SCP
0 1 1 1 2 2 1 1 1 1 1 1 2 2 2 1 1 1 1 1 1 0 1 1 0 0 1 1 1 1 1 1 1 2 1 1 1 1 1 1 0 0 0
0 1 1 2 2 2 1 1 1 1 1 1 1 2 2 1 1 1 1 1 1 0 1 1 0 0 1 1 1 1 1 1 1 2 1 1 1 1 1 1 0 0 0
0 1 1 2 2 2 1 1 1 1 1 1 1 1 1 1 1 1 1 1 1 1 1 1 1 0 0 1 1 1 1 1 1 1 1 1 1 1 1 1 0 0 0
0 1 1 1 2 1 1 1 1 1 1 1 1 1 1 1 1 1 1 1 1 1 1 1 1 1 0 1 2 2 1 1 1 1 1 1 1 1 1 1 0 0 0
0 1 1 1 1 1 2 2 1 1 1 1 1 1 1 1 1 1 1 1 1 1 0 0 1 1 1 1 2 2 1 1 1 1 1 1 1 1 1 1 0 0 0
0 1 1 1 1 1 2 2 2 2 2 2 2 1 1 1 1 1 1 1 1 1 1 0 0 1 1 1 1 2 1 1 1 1 1 1 1 1 1 1 0 0 0
0 0 1 1 1 1 1 1 2 2 2 2 2 2 2 1 1 1 1 1 1 1 1 1 0 0 1 1 1 1 1 1 1 0 0 1 1 1 1 0 0 0 0
0 0 1 1 1 1 1 1 1 1 2 2 2 2 2 1 1 1 1 1 1 1 1 1 0 0 1 1 1 1 1 1 0 0 0 1 1 1 0 0 0 0 0
0 0 0 1 1 1 1 1 1 1 1 1 1 1 1 1 1 1 1 1 1 1 1 0 0 0 0 0 0 1 1 0 0 0 0 0 1 1 0 0 0 0 0
0 0 0 1 1 1 1 1 1 1 1 1 1 1 1 1 0 1 1 1 1 0 0 0 0 0 0 0 0 0 0 0 0 0 0 0 0 0 0 0 0 0 0
0 0 0 0 0 0 1 1 1 1 1 0 1 1 1 0 0 0 0 0 0 0 0 0 0 0 0 0 0 0 0 0 0 0 0 0 0 0 0 0 0 0 0
0 0 0 1 1 1 1 1 1 1 0 0 0 0 0 0 0 0 0 0 0 0 0 0 0 0 0 0 0 0 0 0 0 0 0 0 0 0 0 0 0 0 0
0 0 1 1 1 1 1 1 1 0 0 0 0 0 0 0 0 0 0 0 0 0 0 0 0 0 0 0 0 0 0 0 0 0 0 0 0 0 0 0 0 0 0
0 0 1 1 1 1 1 1 1 0 0 0 0 0 0 0 0 0 0 0 0 0 0 0 0 0 0 0 0 0 0 0 0 0 0 0 0 0 0 0 0 0 0
1 1 1 1 1 2 2 1 1 1 0 0 0 0 0 0 0 0 0 0 0 0 0 0 0 0 0 0 0 0 0 0 0 0 0 0 0 0 0 0 0 0 0
1 1 1 1 1 2 2 2 1 1 0 0 0 0 0 0 0 0 0 0 0 0 0 0 0 0 0 0 0 0 0 0 0 0 0 0 0 0 0 0 0 0 0
1 1 1 1 2 2 2 2 1 1 0 0 0 0 0 0 0 0 0 0 0 0 0 0 0 0 0 0 0 0 0 0 0 0 0 0 0 1 1 1 1 1 1
1 1 1 1 2 2 2 2 1 1 1 0 0 0 0 0 0 0 0 0 0 0 0 0 0 0 0 0 1 1 1 0 0 0 0 0 0 0 1 1 1 1 1
2 2 2 2 2 2 2 2 1 1 1 1 0 0 0 0 0 0 0 0 0 0 0 0 0 0 1 1 1 1 1 1 1 1 0 0 0 0 1 1 1 1 1
2 2 3 3 3 2 2 2 1 1 1 1 1 1 1 1 1 0 0 0 0 0 0 0 1 1 1 1 1 1 1 1 1 1 1 1 1 1 1 1 1 1 1
2 2 3 3 3 3 2 2 1 1 1 1 1 1 1 1 1 1 1 1 0 0 0 1 1 1 1 1 1 1 1 1 1 1 1 1 1 1 2 2 2 2 2
2 2 2 2 3 2 2 2 2 1 1 1 1 1 1 1 1 1 1 1 1 1 1 1 1 1 1 1 1 1 1 1 1 1 1 1 1 2 2 2 1 1 1
2 2 2 2 2 2 2 2 2 1 1 1 1 1 1 1 1 1 1 1 1 1 2 2 2 2 1 1 1 1 1 1 1 1 1 1 2 2 2 1 1 1 1
2 2 1 2 2 2 2 2 2 1 1 1 1 1 1 1 1 1 1 1 2 2 2 3 3 2 2 2 2 2 2 1 1 1 1 1 1 1 1 1 1 1 1
2 2 1 2 2 2 2 2 2 1 1 1 1 1 1 1 1 1 1 2 2 2 3 3 3 3 3 3 3 3 3 2 2 2 1 1 2 2 1 1 1 1 1
2 2 1 2 2 2 2 2 2 1 1 1 1 1 1 1 1 1 1 2 2 2 2 2 3 3 3 3 4 4 4 3 3 2 2 1 2 2 2 1 1 1 1
Wind_Speed
6 10 10 9 10 10 11 11 12 12 13 13 14 14 15 16 16 16 16 16 16 16 16 16 15 16 16 16 16 16 16 16 16 16 16 16 15 15 14 14 13 13 15
7 10 10 9 10 10 10 11 12 13 13 13 13 14 15 15 15 15 15 15 15 15 15 15 15 15 15 15 16 16 16 15 15 15 15 15 15 14 12 10 8 12 14
7 9 9 9 9 10 10 11 12 12 13 13 13 14 14 15 15 15 15 15 15 15 15 15 14 14 14 15 15 15 15 14 13 13 12 11 13 12 12 12 13 14 13
8 9 10 10 10 11 11 11 11 12 12 13 13 13 14 15 15 15 14 14 15 14 14 14 14 14 14 14 14 14 14 14 12 10 7 9 11 13 12 12 13 13 12
8 9 11 10 11 11 11 11 11 12 12 13 13 14 14 14 14 14 14 14 14 13 14 14 14 14 13 14 14 13 13 12 9 6 8 8 10 12 12 12 12 12 12
8 9 12 9 10 11 11 11 12 12 12 13 13 13 14 14 14 14 14 13 13 13 13 13 13 13 12 13 13 12 11 9 8 8 8 8 10 11 11 11 11 11 11
9 9 12 9 10 11 11 11 12 12 12 13 13 13 14 14 14 13 13 13 13 13 12 12 12 12 11 11 11 10 9 5 4 7 7 7 10 10 10 10 10 10 10
8 9 12 10 9 10 11 11 11 12 12 12 13 13 13 13 12 12 12 12 13 12 12 11 11 10 10 10 9 9 6 4 6 7 6 8 11 9 9 9 9 9 9
7 8 8 10 10 10 10 11 11 11 11 12 12 12 12 12 11 11 11 11 11 11 10 10 10 9 9 8 8 7 4 2 1 5 6 7 11 9 9 8 8 8 8
7 8 7 7 7 8 10 11 10 10 10 10 10 10 10 10 10 9 9 10 10 9 9 9 9 8 8 7 7 6 4 5 3 5 5 9 10 9 8 8 8 7 7
6 5 6 7 7 6 8 10 9 9 8 7 8 7 4 5 8 7 11 9 8 8 8 7 7 7 7 7 6 5 5 2 3 3 4 11 9 8 8 7 7 7 7
6 5 5 5 6 5 5 5 4 5 6 4 5 5 4 5 4 6 10 7 6 6 6 6 5 6 5 5 7 7 3 2 2 3 6 10 7 7 7 7 7 7 6
6 5 6 5 4 4 4 3 3 3 4 4 5 4 3 3 4 4 4 6 6 6 5 6 6 3 2 2 1 2 1 1 1 2 7 9 7 7 7 7 7 7 7
5 5 5 5 4 3 2 3 3 3 2 3 4 2 3 2 2 3 2 2 2 2 2 2 2 3 2 2 1 1 1 1 1 2 6 8 6 6 6 7 7 7 7
5 5 5 4 4 3 2 1 2 2 2 3 2 2 1 2 2 2 1 1 1 2 3 1 1 2 1 2 1 1 0 1 1 1 4 8 6 5 6 6 6 7 7
5 5 5 4 4 4 3 2 1 2 2 1 1 2 1 1 1 1 2 1 1 1 1 1 1 1 1 1 0 1 0 0 1 0 1 5 7 5 5 6 6 6 7
5 4 4 4 4 4 3 3 2 2 2 1 1 1 1 1 1 0 0 1 1 1 1 1 1 1 1 1 1 1 1 0 1 1 1 1 4 7 6 6 5 6 6
4 5 4 4 5 4 3 2 1 0 1 1 1 1 1 0 0 1 0 0 0 1 1 1 1 1 0 0 0 0 0 1 2 2 2 2 2 2 6 6 4 4 5
5 5 5 4 3 3 3 3 2 1 1 0 0 0 1 1 1 2 1 0 2 1 1 2 1 1 0 0 1 1 1 1 1 2 1 2 2 2 2 6 6 4 5
6 5 5 5 4 3 3 3 2 2 2 1 1 0 1 1 1 2 2 1 2 1 1 0 1 1 1 1 1 1 0 1 1 1 1 1 1 2 1 1 3 4 4
6 6 5 5 5 4 3 3 2 2 2 1 2 1 2 2 2 3 2 1 2 2 2 2 2 2 2 1 1 1 1 1 1 0 1 1 0 1 0 0 1 1 2
7 7 7 6 6 6 3 2 2 1 1 1 1 1 2 2 3 3 2 3 2 2 3 3 3 2 2 2 2 2 2 1 1 1 1 0 1 1 1 1 1 1 2
8 8 6 6 6 5 4 3 2 2 2 2 2 1 1 2 2 2 3 3 2 3 2 3 3 4 3 3 3 3 2 1 1 1 1 1 1 1 1 1 1 1 1
8 8 7 7 6 5 5 4 4 3 2 1 1 0 1 0 1 1 2 2 3 3 2 4 2 3 4 3 2 3 3 2 2 1 1 1 1 0 1 1 1 1 1
8 8 8 7 6 6 5 5 4 4 2 1 1 1 1 1 0 1 1 2 2 2 2 3 2 3 3 3 2 2 2 2 3 2 1 1 1 1 1 1 1 1 2
8 8 8 7 7 6 6 5 5 4 3 2 2 1 1 1 1 2 1 2 2 2 2 2 2 2 2 3 3 2 2 2 2 2 2 2 1 1 1 2 1 2 2
Wind_Direction
77 80 76 68 73 78 82 86 86 86 85 86 85 92 95 97 99 99 100 101 101 102 103 104 105 106 109 112 112 112 113 114 115 115 115 115 117 119 122 128 136 118 118
82 85 84 74 78 81 83 83 84 85 86 87 88 90 94 97 99 99 99 99 100 100 102 103 105 107 109 112 114 114 115 117 118 120 123 121 118 119 120 118 102 110 124
87 91 93 75 80 83 84 86 84 85 86 87 88 90 94 97 98 98 98 99 99 99 99 100 103 105 110 113 115 116 117 117 121 130 143 128 120 120 119 114 110 118 121
87 89 80 77 83 85 85 88 88 88 88 88 88 90 93 95 96 98 99 100 99 98 97 98 100 102 106 111 115 116 117 119 128 157 143 119 121 119 121 120 121 123 123
88 90 85 79 79 82 84 87 88 88 88 89 89 90 92 95 97 99 101 101 101 100 98 97 98 99 103 108 112 115 117 122 143 160 107 110 110 120 124 125 126 126 126
103 97 89 81 81 82 83 83 88 90 89 89 88 89 90 94 96 98 99 100 100 99 98 98 100 100 102 107 112 117 121 138 172 117 116 119 114 124 128 129 128 129 129
100 96 94 85 83 82 84 84 84 87 88 88 88 88 89 91 94 96 97 99 99 98 98 98 100 102 106 109 115 119 126 160 136 110 120 113 107 124 131 130 131 134 135
99 100 104 99 87 85 87 89 88 87 87 87 88 87 88 90 94 96 99 100 101 100 99 99 98 98 101 106 113 120 136 202 133 116 111 106 111 131 133 134 138 139 140
96 99 104 116 113 104 92 91 89 88 88 89 89 90 92 93 94 96 98 101 101 101 102 101 99 100 100 103 111 119 128 265 140 113 118 112 125 138 141 145 145 146 147
103 101 107 103 105 117 114 102 94 92 92 92 91 93 100 107 106 109 113 101 101 102 103 101 100 101 103 104 110 121 158 225 147 120 120 115 135 149 153 154 153 153 156
102 100 103 107 108 107 107 115 121 116 108 122 116 113 137 118 114 121 91 99 102 105 106 105 107 112 123 128 128 154 206 205 109 101 100 112 145 159 162 164 164 163 163
121 117 106 99 103 108 103 113 119 118 113 106 97 109 105 91 87 95 107 107 109 115 123 118 127 165 195 148 151 192 196 134 125 126 109 126 152 168 170 172 174 171 170
133 126 121 114 120 121 110 112 103 106 112 116 107 110 100 117 125 124 131 142 147 161 153 147 177 165 133 100 119 157 99 116 134 126 119 140 164 181 183 183 183 181 182
135 130 122 123 121 106 97 108 127 119 112 105 107 110 111 102 97 99 117 113 140 130 125 149 142 121 112 108 114 100 129 194 102 89 118 144 166 183 187 187 193 197 198
147 147 135 133 130 138 134 139 106 103 99 107 109 104 96 121 110 105 84 84 103 118 146 160 140 128 145 163 170 147 99 63 76 116 124 143 164 183 190 191 200 207 208
165 158 149 159 151 156 156 156 133 133 126 97 110 100 82 82 85 105 149 133 107 129 99 195 159 175 191 131 136 117 230 117 101 177 168 151 164 181 194 200 205 214 218
176 169 175 176 165 173 177 182 168 164 136 115 112 128 192 164 114 248 76 211 99 129 152 198 198 194 192 178 149 142 168 175 135 189 236 226 178 175 186 199 207 215 220
176 175 191 197 170 178 192 216 214 140 109 119 143 141 174 74 192 259 239 235 188 228 212 193 234 242 218 221 151 315 102 177 208 211 222 221 234 203 175 178 195 216 228
180 180 186 199 194 190 185 199 203 181 195 182 201 117 130 229 239 250 262 36 241 235 255 272 112 266 257 283 226 201 249 245 237 216 224 238 227 237 220 163 182 210 231
182 183 190 195 197 200 195 199 214 210 201 192 182 195 243 225 237 264 220 207 256 232 243 296 287 252 255 246 285 21 280 250 238 231 235 218 226 235 242 210 186 187 197
182 184 191 200 190 200 205 214 203 200 207 202 191 190 229 245 246 260 287 217 257 260 267 250 242 219 223 205 218 215 200 193 144 235 240 277 260 241 332 5 296 291 167
187 191 192 196 194 201 191 210 221 232 221 221 280 220 244 242 257 243 257 262 262 271 262 257 246 260 250 222 238 240 221 174 135 73 74 104 344 42 68 62 33 19 341
190 194 196 198 195 201 196 201 198 196 226 209 218 207 242 253 253 276 272 280 287 272 261 257 246 245 250 245 242 260 265 248 127 110 73 62 44 35 23 50 56 45 353
192 189 193 194 196 194 202 213 222 220 231 232 254 162 208 257 290 278 281 288 288 291 287 267 256 259 250 252 242 253 270 283 233 199 172 122 94 59 3 357 28 36 33
188 186 184 186 191 195 203 204 224 237 237 221 218 162 226 120 356 352 345 323 306 304 318 308 301 280 268 269 263 246 238 235 230 229 222 202 147 48 47 23 28 20 32
180 180 178 179 188 191 200 205 219 233 248 255 244 216 209 140 85 48 9 342 327 335 327 310 293 267 276 273 276 266 248 242 222 211 207 205 181 26 38 49 49 49 39